Weather History for KLFK - May, 2014

Change the Weather History Date:

Monday, May 19, 2014

  Actual Average Record
Temperature  
Mean Temperature 75 °F 75 °F  
Max Temperature 87 °F 86 °F 96 °F (1933)
Min Temperature 63 °F 65 °F 48 °F (2002)
Degree Days  
Heating Degree Days 0 0  
Month to date heating degree days 11 1  
Since 1 July heating degree days 2125 1914  
Cooling Degree Days 10 10  
Month to date cooling degree days 146 153  
Year to date cooling degree days 340 329  
Growing Degree Days 24 (Base 50)    
Moisture  
Dew Point 61 °F    
Average Humidity 68    
Maximum Humidity 93    
Minimum Humidity 42    
Precipitation  
Precipitation 0.00 in 0.14 in 2.40 in (1942)
Month to date precipitation 4.75 2.73  
Year to date precipitation 12.99 17.61  
Snow  
Snow 0.00 in - - ()
Month to date snowfall 0.0  
Since 1 July snowfall 3.2  
Snow Depth 0.00 in    
Sea Level Pressure  
Sea Level Pressure 30.06 in    
Wind  
Wind Speed 9 mph (SSE)    
Max Wind Speed 18 mph    
Max Gust Speed 30 mph    
Visibility 7 miles    
Events Fog    
T = Trace of Precipitation, MM = Missing Value Source: NWS Daily Summary

Daily Weather History Graph

Daily Weather History Graph

Search for Another Location

Airport or City:

Trip Planner

Search our weather history database for the weather conditions in past years. The results will help you decide how hot, cold, wet, or windy it might be!

Date:

Astronomy

May. 19, 2014 Rise Set
Actual Time 6:20 AM CDT 8:10 PM CDT
Civil Twilight 5:53 AM CDT 8:37 PM CDT
Nautical Twilight 5:21 AM CDT 9:09 PM CDT
Astronomical Twilight 4:47 AM CDT 9:44 PM CDT
Moon 12:03 AM CDT (5/19) 11:13 AM CDT (5/19)
Length of Visible Light 14h 43m
Length of Day
13h 49m
Waning Gibbous, 71% of the Moon is Illuminated
May 19
Waning Gibbous
May 21
Last Quarter
May 28
New
Jun 5
First Quarter
Jun 12
Full

Hourly Weather History & Observations

Time (CDT) Temp. Heat Index Dew Point Humidity Pressure Visibility Wind Dir Wind Speed Gust Speed Precip Events Conditions
12:53 AM 66.0 °F - 61.0 °F 84% 30.07 in 10.0 mi SE 4.6 mph - N/A   Clear
1:53 AM 64.9 °F - 61.0 °F 87% 30.06 in 8.0 mi SSE 6.9 mph - N/A   Clear
2:53 AM 64.9 °F - 61.0 °F 87% 30.05 in 6.0 mi SE 4.6 mph - N/A   Partly Cloudy
3:53 AM 64.0 °F - 61.0 °F 90% 30.05 in 5.0 mi SE 3.5 mph - N/A   Clear
4:36 AM 64.0 °F - 61.0 °F 90% 30.06 in 2.5 mi ESE 4.6 mph - N/A   Partly Cloudy
4:42 AM 64.0 °F - 61.0 °F 90% 30.06 in 1.0 mi ESE 3.5 mph - N/A   Mist
4:46 AM 64.0 °F - 61.0 °F 90% 30.06 in 0.5 mi ESE 4.6 mph - N/A Fog Fog
4:53 AM 64.0 °F - 61.0 °F 90% 30.06 in 0.2 mi SE 3.5 mph - N/A Fog Fog
5:10 AM 64.0 °F - 61.0 °F 90% 30.07 in 0.5 mi SE 3.5 mph - N/A Fog Fog
5:50 AM 62.6 °F - 60.8 °F 94% 30.06 in 1.8 mi SE 5.8 mph - N/A   Mostly Cloudy
5:53 AM 63.0 °F - 60.1 °F 90% 30.05 in 3.0 mi SE 5.8 mph - N/A   Mostly Cloudy
6:01 AM 63.0 °F - 60.1 °F 90% 30.06 in 5.0 mi SE 4.6 mph - N/A   Scattered Clouds
6:53 AM 64.0 °F - 61.0 °F 90% 30.07 in 5.0 mi SE 3.5 mph - N/A   Clear
8:53 AM 72.0 °F - 66.0 °F 81% 30.09 in 10.0 mi South 9.2 mph - N/A   Clear
9:53 AM 77.0 °F - 64.0 °F 64% 30.10 in 10.0 mi South 10.4 mph - N/A   Scattered Clouds
10:20 AM 79.0 °F - 63.0 °F 58% 30.11 in 10.0 mi SSE 13.8 mph - N/A   Mostly Cloudy
10:39 AM 79.0 °F - 62.1 °F 56% 30.11 in 10.0 mi South 13.8 mph 19.6 mph N/A   Mostly Cloudy
10:53 AM 81.0 °F 81.9 °F 62.1 °F 52% 30.10 in 10.0 mi South 12.7 mph 25.3 mph N/A   Scattered Clouds
11:53 AM 81.0 °F 81.7 °F 61.0 °F 50% 30.10 in 10.0 mi SSE 9.2 mph - N/A   Scattered Clouds
12:53 PM 82.4 °F 82.9 °F 60.8 °F 48% 30.10 in 10.0 mi South 12.7 mph - N/A   Partly Cloudy
1:53 PM 84.0 °F 84.4 °F 61.0 °F 46% 30.08 in 10.0 mi South 11.5 mph - N/A   Scattered Clouds
2:53 PM 86.0 °F 86.1 °F 61.0 °F 43% 30.06 in 10.0 mi South 12.7 mph - N/A   Mostly Cloudy
3:53 PM 84.9 °F 84.8 °F 60.1 °F 43% 30.05 in 10.0 mi SSE 11.5 mph - N/A   Scattered Clouds
4:53 PM 84.9 °F 84.8 °F 60.1 °F 43% 30.03 in 10.0 mi South 11.5 mph - N/A   Partly Cloudy
5:53 PM 84.9 °F 84.4 °F 59.0 °F 41% 30.03 in 10.0 mi South 12.7 mph 19.6 mph N/A   Clear
6:53 PM 82.9 °F 83.3 °F 61.0 °F 47% 30.01 in 10.0 mi South 11.5 mph - N/A   Clear
7:53 PM 79.0 °F - 62.1 °F 56% 30.02 in 10.0 mi South 9.2 mph - N/A   Clear
8:53 PM 77.0 °F - 61.0 °F 58% 30.02 in 10.0 mi SSE 10.4 mph - N/A   Clear
9:53 PM 73.9 °F - 63.0 °F 68% 30.04 in - SSE 8.1 mph - N/A   Unknown
10:53 PM 73.0 °F - 62.1 °F 68% 30.05 in 10.0 mi SSE 9.2 mph - N/A   Unknown
11:53 PM 71.1 °F - 63.0 °F 75% 30.05 in 10.0 mi SSE 9.2 mph - N/A   Clear